GW3140 Weather Reports


Display with metric or nautical units.
time (UTC)temp
F
wind
direction
speed
MPH
gust
MPH
rain 1hr
in
rain 24hr
in
rain mn
in
humidity
%
barometer
mb
20260509192013 62 286 3.0 15.0 0.00 0.00 0.00 64 1001.8
20260509191530 63 206 4.0 12.0 0.00 0.00 0.00 63 1001.6
20260509191015 63 185 4.0 10.0 0.00 0.00 0.00 64 1001.6
20260509190512 63 195 3.0 13.0 0.00 0.00 0.00 64 1001.7
20260509190034 63 185 4.0 13.0 0.00 0.00 0.00 64 1002.0
20260509185514 63 145 5.0 12.0 0.00 0.00 0.00 62 1002.0
20260509185012 64 194 5.0 14.0 0.00 0.00 0.00 61 1002.1
20260509184534 64 192 7.0 14.0 0.00 0.00 0.00 60 1002.2
20260509184012 64 206 5.0 15.0 0.00 0.00 0.00 59 1002.0
20260509183511 65 211 7.0 19.0 0.00 0.00 0.00 58 1001.9
20260509183033 65 192 5.0 19.0 0.00 0.00 0.00 59 1001.8
20260509182511 65 210 8.0 19.0 0.00 0.00 0.00 59 1001.7
20260509182011 65 180 6.0 16.0 0.00 0.00 0.00 62 1001.7
20260509181542 64 147 4.0 16.0 0.00 0.00 0.00 60 1002.1
20260509181019 64 207 6.0 13.0 0.00 0.00 0.00 61 1002.0
20260509180516 63 180 5.0 13.0 0.00 0.00 0.00 63 1002.0
20260509180030 63 133 4.0 11.0 0.00 0.00 0.00 63 1002.3
20260509175513 63 180 4.0 12.0 0.00 0.00 0.00 63 1002.6
20260509175011 63 201 5.0 13.0 0.00 0.00 0.00 61 1002.7
20260509174532 64 185 2.0 13.0 0.00 0.00 0.00 59 1002.9
20260509174012 64 164 4.0 14.0 0.00 0.00 0.00 55 1003.0
20260509173513 65 112 5.0 19.0 0.00 0.00 0.00 57 1002.7
20260509173032 65 165 8.0 19.0 0.00 0.00 0.00 57 1002.4
20260509172513 66 164 4.0 14.0 0.00 0.00 0.00 57 1002.0
20260509172013 66 171 6.0 15.0 0.00 0.00 0.00 56 1002.2
20260509171532 66 54 5.0 16.0 0.00 0.00 0.00 55 1002.3
20260509171013 66 158 8.0 16.0 0.00 0.00 0.00 52 1002.3
20260509170512 65 191 7.0 13.0 0.00 0.00 0.00 53 1002.4
20260509170030 65 168 6.0 13.0 0.00 0.00 0.00 54 1002.6
20260509165511 65 154 4.0 13.0 0.00 0.00 0.00 54 1002.7
20260509165011 64 185 5.0 13.0 0.00 0.00 0.00 55 1003.0
20260509164529 64 180 4.0 11.0 0.00 0.00 0.00 56 1003.0
20260509164014 64 145 5.0 15.0 0.00 0.00 0.00 57 1003.2
20260509163517 64 164 5.0 15.0 0.00 0.00 0.00 58 1003.3
20260509163033 63 218 5.0 15.0 0.00 0.00 0.00 57 1003.3
20260509162514 63 147 6.0 10.0 0.00 0.00 0.00 59 1003.4
20260509162015 62 202 3.0 15.0 0.00 0.00 0.00 62 1003.4
20260509161534 62 180 5.0 15.0 0.00 0.00 0.00 62 1003.5
20260509161011 62 206 5.0 12.0 0.00 0.00 0.00 62 1003.9
20260509160515 62 193 3.0 11.0 0.00 0.00 0.00 66 1004.0
20260509160032 61 195 4.0 11.0 0.00 0.00 0.00 65 1004.1
20260509155514 60 175 2.0 8.0 0.00 0.00 0.00 69 1004.0
20260509155014 59 201 2.0 6.0 0.00 0.00 0.00 70 1004.1
20260509154531 59 170 3.0 6.0 0.00 0.00 0.00 69 1003.8
20260509154013 59 175 2.0 13.0 0.00 0.00 0.00 69 1004.7
20260509153511 59 180 2.0 13.0 0.00 0.00 0.00 69 1005.3
20260509153031 59 251 3.0 13.0 0.00 0.00 0.00 69 1005.3
20260509152511 59 239 2.0 8.0 0.00 0.00 0.00 69 1005.4
20260509152013 59 233 2.0 7.0 0.00 0.00 0.00 69 1005.4
20260509151529 59 246 1.0 7.0 0.00 0.00 0.00 69 1005.3
20260509151014 59 283 1.0 6.0 0.00 0.00 0.00 68 1005.3
20260509150514 59 191 3.0 11.0 0.00 0.00 0.00 68 1005.2
20260509150030 59 180 3.0 11.0 0.00 0.00 0.00 68 1005.0
20260509145515 59 150 3.0 10.0 0.00 0.00 0.00 69 1005.0
20260509145012 59 164 4.0 10.0 0.00 0.00 0.00 70 1004.9
20260509144537 58 172 2.0 10.0 0.00 0.00 0.00 73 1004.8
20260509144012 58 210 4.0 12.0 0.00 0.00 0.00 73 1004.8
20260509143511 57 206 3.0 13.0 0.00 0.00 0.00 73 1005.0
20260509143030 57 224 4.0 13.0 0.00 0.00 0.00 73 1005.0
20260509142511 57 245 2.0 9.0 0.00 0.00 0.00 74 1005.0
20260509142012 56 224 1.0 10.0 0.00 0.00 0.00 78 1004.9
20260509141529 55 202 3.0 10.0 0.00 0.00 0.00 77 1004.8
20260509141015 55 151 4.0 9.0 0.00 0.00 0.00 76 1004.8
20260509140510 55 226 3.0 9.0 0.00 0.00 0.00 78 1005.0
20260509140029 55 175 3.0 9.0 0.00 0.00 0.00 77 1005.0
20260509135512 55 180 3.0 10.0 0.00 0.00 0.00 78 1005.0
20260509135013 55 149 3.0 11.0 0.00 0.00 0.00 78 1005.1
20260509134530 55 149 5.0 11.0 0.00 0.00 0.00 77 1005.2
20260509134011 55 175 2.0 7.0 0.00 0.00 0.00 78 1005.2
20260509133511 55 137 3.0 9.0 0.00 0.00 0.00 78 1005.4
20260509133033 54 154 4.0 9.0 0.00 0.00 0.00 81 1005.3
20260509132513 53 185 3.0 9.0 0.00 0.00 0.00 81 1005.5
20260509132013 53 175 4.0 10.0 0.00 0.00 0.00 81 1005.6
20260509131530 53 172 3.0 10.0 0.00 0.00 0.00 81 1005.6
20260509131013 53 158 3.0 10.0 0.00 0.00 0.00 82 1005.6
20260509130513 52 217 1.0 8.0 0.00 0.00 0.00 84 1005.7
20260509130032 52 199 3.0 8.0 0.00 0.00 0.00 83 1005.6
20260509125513 52 204 2.0 6.0 0.00 0.00 0.00 84 1005.6
20260509125011 51 185 2.0 5.0 0.00 0.00 0.00 86 1005.7
20260509124532 51 199 1.0 8.0 0.00 0.00 0.00 85 1005.8
20260509124017 51 169 3.0 8.0 0.00 0.00 0.00 85 1005.9
20260509123514 51 180 3.0 8.0 0.00 0.00 0.00 86 1006.0
20260509123029 51 206 0.0 9.0 0.00 0.00 0.00 87 1006.0
20260509122512 50 175 3.0 9.0 0.00 0.00 0.00 87 1005.9
20260509122012 50 238 4.0 9.0 0.00 0.00 0.00 87 1005.9
20260509121536 50 185 3.0 8.0 0.00 0.00 0.00 88 1005.7
20260509121012 50 112 2.0 8.0 0.00 0.00 0.00 88 1005.8
20260509120512 50 172 2.0 7.0 0.00 0.00 0.00 88 1005.9
20260509120031 50 222 3.0 7.0 0.00 0.00 0.00 88 1005.9
20260509115515 50 218 1.0 5.0 0.00 0.00 0.00 89 1005.9
20260509115011 50 180 1.0 6.0 0.00 0.00 0.00 88 1006.0
20260509114529 50 212 1.0 6.0 0.00 0.00 0.00 89 1006.0
20260509114011 50 161 1.0 6.0 0.00 0.00 0.00 89 1006.0
20260509113511 50 147 2.0 6.0 0.00 0.00 0.00 88 1006.0
20260509113032 50 163 1.0 6.0 0.00 0.00 0.00 89 1005.9
20260509112513 49 171 2.0 8.0 0.00 0.00 0.00 89 1005.8
20260509112012 49 192 2.0 8.0 0.00 0.00 0.00 89 1005.8
20260509111529 49 158 1.0 8.0 0.00 0.00 0.00 89 1005.9
20260509111011 49 185 1.0 6.0 0.00 0.00 0.00 89 1005.9
20260509110511 49 192 1.0 4.0 0.00 0.00 0.00 89 1005.6
20260509110035 49 207 2.0 6.0 0.00 0.00 0.00 89 1005.6
20260509105513 49 196 2.0 6.0 0.00 0.00 0.00 89 1005.5
20260509105014 49 170 1.0 4.0 0.00 0.00 0.00 89 1005.6
20260509104539 49 185 2.0 4.0 0.00 0.00 0.00 89 1005.6
20260509104013 49 163 0.0 3.0 0.00 0.00 0.00 89 1005.6
20260509103512 49 175 1.0 3.0 0.00 0.00 0.00 89 1005.6
20260509103029 49 172 1.0 4.0 0.00 0.00 0.00 89 1005.7
20260509102513 49 172 1.0 4.0 0.00 0.00 0.00 89 1005.7
20260509102011 49 147 1.0 4.0 0.00 0.00 0.00 89 1005.8
20260509101534 49 189 1.0 4.0 0.00 0.00 0.00 89 1005.9
20260509101017 49 170 0.0 3.0 0.00 0.00 0.00 88 1006.0
20260509100513 49 169 1.0 4.0 0.00 0.00 0.00 88 1006.1
20260509100029 49 185 1.0 4.0 0.00 0.00 0.00 88 1006.1
20260509095513 49 150 1.0 5.0 0.00 0.00 0.00 88 1006.2
20260509095011 49 169 2.0 5.0 0.00 0.00 0.00 88 1006.1
20260509094532 49 185 1.0 9.0 0.00 0.00 0.00 88 1006.1
20260509094013 50 146 1.0 9.0 0.00 0.00 0.00 88 1006.2
20260509093515 50 211 3.0 9.0 0.00 0.00 0.00 88 1006.3
20260509093042 50 172 1.0 4.0 0.00 0.00 0.00 89 1006.2
20260509092512 50 172 2.0 5.0 0.00 0.00 0.00 89 1006.2
20260509092012 50 168 2.0 5.0 0.00 0.00 0.00 89 1006.3
20260509091530 49 0 1.0 7.0 0.00 0.00 0.00 89 1006.2
20260509091013 49 180 2.0 7.0 0.00 0.00 0.00 89 1006.2
20260509090512 49 0 1.0 3.0 0.00 0.00 0.00 89 1006.2
20260509090030 49 143 1.0 3.0 0.00 0.00 0.00 89 1006.3
20260509085517 49 168 1.0 5.0 0.00 0.00 0.00 89 1006.4
20260509085013 49 156 0.0 5.0 0.00 0.00 0.00 89 1006.3
20260509084542 49 194 1.0 4.0 0.00 0.00 0.00 89 1006.3
20260509084013 49 154 0.0 4.0 0.00 0.00 0.00 89 1006.4
20260509083514 49 143 0.0 2.0 0.00 0.00 0.00 89 1006.4
20260509083031 49 185 0.0 3.0 0.00 0.00 0.00 89 1006.4
20260509082513 49 151 0.0 3.0 0.00 0.00 0.00 89 1006.4
20260509082011 49 0 0.0 2.0 0.00 0.00 0.00 89 1006.3
20260509081537 49 0 0.0 2.0 0.00 0.00 0.00 89 1006.3
20260509081016 49 0 0.0 3.0 0.00 0.00 0.00 89 1006.4
20260509080515 49 193 1.0 3.0 0.00 0.00 0.00 89 1006.3
20260509080041 49 151 1.0 6.0 0.00 0.00 0.00 89 1006.4
20260509075514 49 160 2.0 6.0 0.00 0.00 0.00 89 1006.4
20260509075014 49 180 2.0 4.0 0.00 0.00 0.00 89 1006.4
20260509074533 49 153 1.0 4.0 0.00 0.00 0.00 89 1006.4
20260509074017 49 190 1.0 4.0 0.00 0.00 0.00 89 1006.5
20260509073512 49 170 2.0 4.0 0.00 0.00 0.00 88 1006.3
20260509073034 49 165 1.0 5.0 0.00 0.00 0.00 89 1006.4
20260509072512 48 0 1.0 5.0 0.00 0.00 0.00 89 1006.6
20260509072011 48 185 0.0 5.0 0.00 0.00 0.00 88 1006.5
20260509071532 48 170 1.0 4.0 0.00 0.00 0.00 89 1006.6
20260509071014 48 133 1.0 4.0 0.00 0.00 0.00 88 1006.6
20260509070513 48 0 1.0 5.0 0.00 0.00 0.00 88 1006.6
20260509070032 48 172 1.0 5.0 0.00 0.00 0.00 88 1006.6
20260509065512 48 166 1.0 4.0 0.00 0.00 0.00 88 1006.7
20260509065012 48 158 1.0 4.0 0.00 0.00 0.00 88 1006.9
20260509064533 47 0 1.0 3.0 0.00 0.00 0.00 88 1006.9
20260509064013 47 0 1.0 4.0 0.00 0.00 0.00 87 1007.0
20260509063513 47 166 1.0 4.0 0.00 0.00 0.00 87 1007.0
20260509063030 47 150 0.0 3.0 0.00 0.00 0.00 87 1007.0
20260509062512 47 141 0.0 3.0 0.00 0.00 0.00 86 1007.0
20260509062015 47 113 0.0 3.0 0.00 0.00 0.00 86 1007.1
20260509061532 47 0 0.0 3.0 0.00 0.00 0.00 86 1007.1
20260509061018 47 144 0.0 3.0 0.00 0.00 0.00 85 1007.1
20260509060515 47 0 0.0 3.0 0.00 0.00 0.00 85 1007.2
20260509060030 47 0 0.0 4.0 0.00 0.00 0.00 85 1007.2
20260509055515 47 175 0.0 4.0 0.00 0.00 0.00 85 1007.4
20260509055014 47 158 1.0 4.0 0.00 0.00 0.00 84 1007.4
20260509054535 47 164 0.0 3.0 0.00 0.00 0.00 83 1007.4
20260509054014 47 0 0.0 3.0 0.00 0.00 0.00 82 1007.5
20260509053514 48 0 0.0 2.0 0.00 0.00 0.00 82 1007.6
20260509053037 48 0 0.0 3.0 0.00 0.00 0.00 82 1007.6
20260509052514 48 0 1.0 3.0 0.00 0.00 0.00 82 1007.8
20260509052013 47 156 0.0 3.0 0.00 0.00 0.00 82 1007.8
20260509051536 47 0 0.0 3.0 0.00 0.00 0.00 81 1007.7
20260509051013 47 165 0.0 5.0 0.00 0.00 0.00 81 1007.8
20260509050512 47 0 1.0 5.0 0.00 0.00 0.00 81 1008.0
20260509050032 47 0 0.0 4.0 0.00 0.00 0.00 80 1008.0
20260509045516 47 0 0.0 4.0 0.00 0.00 0.00 79 1008.0
20260509045014 47 135 0.0 4.0 0.00 0.00 0.00 79 1008.0
20260509044530 47 124 0.0 3.0 0.00 0.00 0.00 79 1008.1
20260509044015 47 151 1.0 4.0 0.00 0.00 0.00 79 1008.2
20260509043512 47 163 1.0 4.0 0.00 0.00 0.00 79 1008.2
20260509043029 47 161 0.0 3.0 0.00 0.00 0.00 78 1008.2
20260509042512 47 141 0.0 3.0 0.00 0.00 0.00 78 1008.3
20260509042011 47 198 1.0 6.0 0.00 0.00 0.00 78 1008.3
20260509041531 47 128 1.0 6.0 0.00 0.00 0.00 78 1008.4
20260509041011 47 141 1.0 6.0 0.00 0.00 0.00 77 1008.4
20260509040513 47 0 1.0 5.0 0.00 0.00 0.00 77 1008.4
20260509040032 47 0 0.0 6.0 0.00 0.00 0.00 76 1008.5
20260509035511 47 185 1.0 6.0 0.00 0.00 0.00 76 1008.6
20260509035012 48 198 1.0 9.0 0.00 0.00 0.00 76 1008.6
20260509034530 48 180 1.0 9.0 0.00 0.00 0.00 76 1008.7
20260509034011 48 206 0.0 3.0 0.00 0.00 0.00 75 1008.7
20260509033514 48 162 0.0 3.0 0.00 0.00 0.00 75 1008.7
20260509033030 48 0 0.0 3.0 0.00 0.00 0.00 74 1008.7
20260509032513 48 0 0.0 4.0 0.00 0.00 0.00 74 1008.7
20260509032014 49 0 0.0 4.0 0.00 0.00 0.00 73 1008.8
20260509031533 49 0 0.0 3.0 0.00 0.00 0.00 73 1008.9
20260509031012 49 0 0.0 6.0 0.00 0.00 0.00 73 1008.9
20260509030512 49 0 0.0 6.0 0.00 0.00 0.00 73 1009.0
20260509030030 49 95 2.0 9.0 0.00 0.00 0.00 73 1009.0
20260509025513 50 189 1.0 9.0 0.00 0.00 0.00 73 1009.1
20260509025014 50 164 2.0 6.0 0.00 0.00 0.00 73 1009.1
20260509024530 50 149 1.0 6.0 0.00 0.00 0.00 73 1009.1
20260509024013 50 0 1.0 5.0 0.00 0.00 0.00 73 1009.2
20260509023517 50 175 0.0 4.0 0.00 0.00 0.00 71 1009.2
20260509023037 50 152 1.0 4.0 0.00 0.00 0.00 71 1009.2
20260509022512 50 155 1.0 4.0 0.00 0.00 0.00 70 1009.2
20260509022011 49 164 1.0 4.0 0.00 0.00 0.00 68 1009.2
20260509021534 49 175 1.0 4.0 0.00 0.00 0.00 67 1009.2
20260509021016 49 128 1.0 4.0 0.00 0.00 0.00 66 1009.1
20260509020513 50 189 1.0 4.0 0.00 0.00 0.00 66 1009.2
20260509020035 50 180 1.0 3.0 0.00 0.00 0.00 65 1009.1
20260509015513 50 0 0.0 3.0 0.00 0.00 0.00 64 1009.1
20260509015012 50 0 0.0 2.0 0.00 0.00 0.00 64 1009.0
20260509014542 50 0 0.0 1.0 0.00 0.00 0.00 63 1008.9
20260509014013 50 0 0.0 2.0 0.00 0.00 0.00 62 1008.8
20260509013511 50 0 0.0 3.0 0.00 0.00 0.00 62 1008.8
20260509013035 51 0 0.0 3.0 0.00 0.00 0.00 61 1008.8
20260509012512 51 0 0.0 3.0 0.00 0.00 0.00 61 1008.7
20260509012012 51 0 0.0 3.0 0.00 0.00 0.00 60 1008.7
20260509011529 51 185 0.0 3.0 0.00 0.00 0.00 59 1008.7
20260509011013 51 161 0.0 5.0 0.00 0.00 0.00 58 1008.7
20260509010514 51 0 0.0 5.0 0.00 0.00 0.00 57 1008.6
20260509010032 52 175 2.0 5.0 0.00 0.00 0.00 56 1008.6
20260509005516 52 0 1.0 5.0 0.00 0.00 0.00 55 1008.6
20260509005013 52 165 1.0 5.0 0.00 0.00 0.00 55 1008.5
20260509004530 52 204 1.0 6.0 0.00 0.00 0.00 55 1008.6
20260509004017 53 131 2.0 6.0 0.00 0.00 0.00 55 1008.5
20260509003513 53 172 2.0 6.0 0.00 0.00 0.00 53 1008.5
20260509003034 53 165 2.0 6.0 0.00 0.00 0.00 54 1008.4
20260509002513 53 213 2.0 6.0 0.00 0.00 0.00 53 1008.5
20260509002013 54 160 1.0 6.0 0.00 0.00 0.00 53 1008.5
20260509001530 54 192 2.0 6.0 0.00 0.00 0.00 53 1008.5
20260509001012 54 168 2.0 6.0 0.00 0.00 0.00 53 1008.5
20260509000513 55 158 1.0 6.0 0.00 0.00 0.00 53 1008.5
20260509000029 55 151 1.0 5.0 0.00 0.00 0.00 53 1008.5
20260508235513 55 0 0.0 5.0 0.00 0.00 0.00 54 1008.6
20260508235013 55 159 1.0 9.0 0.00 0.00 0.00 53 1008.5
20260508234528 56 0 1.0 9.0 0.00 0.00 0.00 52 1008.5
20260508234010 56 196 3.0 8.0 0.00 0.00 0.00 52 1008.6
20260508233510 56 189 3.0 5.0 0.00 0.00 0.00 52 1008.5
20260508233034 56 163 2.0 5.0 0.00 0.00 0.00 52 1008.4
20260508232511 56 172 2.0 5.0 0.00 0.00 0.00 53 1008.5
20260508232013 56 191 1.0 6.0 0.00 0.00 0.00 51 1008.5
20260508231533 57 185 2.0 6.0 0.00 0.00 0.00 52 1008.5
20260508231012 57 180 2.0 8.0 0.00 0.00 0.00 49 1008.4
20260508230512 57 161 3.0 10.0 0.00 0.00 0.00 51 1008.5
20260508230029 57 160 2.0 10.0 0.00 0.00 0.00 51 1008.5
20260508225511 57 185 4.0 10.0 0.00 0.00 0.00 49 1008.5
20260508225013 57 170 1.0 10.0 0.00 0.00 0.00 49 1008.4
20260508224530 57 189 3.0 10.0 0.00 0.00 0.00 48 1008.5
20260508224012 57 138 3.0 10.0 0.00 0.00 0.00 48 1008.5
20260508223514 57 172 3.0 12.0 0.00 0.00 0.00 48 1008.6
20260508223029 56 166 4.0 12.0 0.00 0.00 0.00 50 1008.6
20260508222512 56 191 2.0 9.0 0.00 0.00 0.00 51 1008.7
20260508222017 56 189 3.0 9.0 0.00 0.00 0.00 48 1008.7
20260508221528 56 216 4.0 12.0 0.00 0.00 0.00 49 1008.7
20260508221012 56 211 3.0 12.0 0.00 0.00 0.00 49 1008.8
20260508220514 57 170 3.0 10.0 0.00 0.00 0.00 48 1008.7
20260508220032 57 95 4.0 11.0 0.00 0.00 0.00 48 1008.7
20260508215512 58 164 3.0 11.0 0.00 0.00 0.00 46 1008.6
20260508215012 58 167 4.0 10.0 0.00 0.00 0.00 47 1008.6
20260508214529 59 202 4.0 10.0 0.00 0.00 0.00 45 1008.6
20260508214015 59 156 4.0 10.0 0.00 0.00 0.00 48 1008.6
20260508213509 58 148 2.0 10.0 0.00 0.00 0.00 48 1008.6
20260508213034 58 227 4.0 10.0 0.00 0.00 0.00 47 1008.6
20260508212512 58 162 2.0 8.0 0.00 0.00 0.00 45 1008.6
20260508212012 59 227 3.0 8.0 0.00 0.00 0.00 45 1008.6
20260508211536 59 224 2.0 7.0 0.00 0.00 0.00 42 1008.5
20260508211013 60 197 2.0 11.0 0.00 0.00 0.00 42 1008.7
20260508210510 60 225 3.0 11.0 0.00 0.00 0.00 39 1008.7
20260508210029 60 175 3.0 9.0 0.00 0.00 0.00 40 1008.6
20260508205510 60 211 2.0 9.0 0.00 0.00 0.00 34 1008.6
20260508205010 60 231 2.0 9.0 0.00 0.00 0.00 32 1008.7
20260508204528 60 209 1.0 11.0 0.00 0.00 0.00 31 1008.8
20260508204011 61 273 1.0 11.0 0.00 0.00 0.00 31 1008.8
20260508203510 61 282 2.0 7.0 0.00 0.00 0.00 30 1008.9
20260508203030 61 190 1.0 7.0 0.00 0.00 0.00 32 1008.9
20260508202509 61 252 2.0 9.0 0.00 0.00 0.00 29 1008.9
20260508202014 60 283 3.0 9.0 0.00 0.00 0.00 30 1008.9
20260508201530 60 264 2.0 8.0 0.00 0.00 0.00 28 1009.0
20260508201011 60 150 2.0 5.0 0.00 0.00 0.00 28 1009.1
20260508200511 61 314 1.0 5.0 0.00 0.00 0.00 30 1009.2
20260508200038 61 260 1.0 5.0 0.00 0.00 0.00 26 1009.1
20260508195511 60 166 2.0 8.0 0.00 0.00 0.00 28 1009.2
20260508195013 60 143 2.0 8.0 0.00 0.00 0.00 30 1009.3
20260508194530 60 17 2.0 7.0 0.00 0.00 0.00 30 1009.4
20260508194010 59 19 1.0 5.0 0.00 0.00 0.00 26 1009.4
20260508193511 59 0 1.0 4.0 0.00 0.00 0.00 25 1009.5
20260508193030 59 37 1.0 6.0 0.00 0.00 0.00 31 1009.6
20260508192511 59 8 2.0 6.0 0.00 0.00 0.00 29 1009.7